This is the latest recevied weather packets stored in our database for station/object IA5FYI-13. If no packets are shown the sender has not sent any weather packets the latest 10 day(s).
| Time | Temp. | Humidity | Pressure | Rain* | Wind** | Luminosity | Snow |
|---|---|---|---|---|---|---|---|
| 1777816508 | 21.11° C | 62% | 1017.3 hPa | 0 mm | - | - | - |
| 1777816212 | 21.11° C | 62% | 1017.3 hPa | 0 mm | - | - | - |
| 1777815912 | 21.11° C | 61% | 1017.6 hPa | 0 mm | - | - | - |
| 1777815612 | 21.11° C | 62% | 1017.3 hPa | 0 mm | - | - | - |
| 1777815309 | 20° C | 61% | 1017.6 hPa | 0 mm | - | - | - |
| 1777815024 | 21.11° C | 58% | 1017.6 hPa | 0 mm | - | - | - |
| 1777814708 | 22.22° C | 56% | 1018 hPa | 0 mm | - | - | - |
| 1777814412 | 22.22° C | 58% | 1018 hPa | 0 mm | - | - | - |
| 1777813812 | 22.22° C | 58% | 1018 hPa | 0 mm | - | - | - |
| 1777813508 | 21.11° C | 55% | 1018 hPa | 0 mm | - | - | - |
| 1777813230 | 21.11° C | 53% | 1018.3 hPa | 0 mm | - | - | - |
| 1777812909 | 21.11° C | 56% | 1018 hPa | 0 mm | - | - | - |
| 1777812612 | 21.11° C | 54% | 1018.3 hPa | 0 mm | - | - | - |
| 1777812312 | 21.11° C | 51% | 1018 hPa | 0 mm | - | - | - |
| 1777812012 | 21.11° C | 52% | 1018.3 hPa | 0 mm | - | - | - |
| 1777811710 | 21.11° C | 55% | 1018.6 hPa | 0 mm | - | - | - |
| 1777811422 | 21.11° C | 49% | 1018.3 hPa | 0 mm | - | - | - |
| 1777811109 | 21.11° C | 53% | 1018.6 hPa | 0 mm | - | - | - |
| 1777810813 | 21.11° C | 44% | 1018.6 hPa | 0 mm | - | - | - |
| 1777810512 | 21.11° C | 53% | 1018.6 hPa | 0 mm | - | - | - |
| 1777809630 | 21.11° C | 54% | 1018.6 hPa | 0 mm | - | - | - |
| 1777809308 | 21.11° C | 55% | 1019 hPa | 0 mm | - | - | - |
| 1777809012 | 20° C | 59% | 1019 hPa | 0 mm | - | - | - |
| 1777808712 | 20° C | 60% | 1019 hPa | 0 mm | - | - | - |
| 1777808412 | 20° C | 63% | 1019 hPa | 0 mm | - | - | - |
* Rain latest hour (hover to see other rain measurements)
** Current wind speed in m/s (hover to see current wind gust speed)